Time,TemperatureF,DewpointF,PressureIn,WindDirection,WindDirectionDegrees,WindSpeedMPH,WindSpeedGustMPH,Humidity,HourlyPrecipIn,Conditions,Clouds,dailyrainin,SoftwareType,DateUTC
2013-12-25 00:21:00,28.0,14.0,30.25,WNW,300,7.0,-999.0,54,-99.99,,,-99.99,,2013-12-25 07:21:00,
2013-12-25 00:42:00,28.0,12.0,30.25,West,280,8.0,-999.0,50,-99.99,,,-99.99,,2013-12-25 07:42:00,
2013-12-25 01:21:00,28.0,12.0,30.25,WNW,290,8.0,-999.0,50,-99.99,,,-99.99,,2013-12-25 08:21:00,
2013-12-25 01:42:00,28.0,12.0,30.25,WNW,290,8.0,-999.0,50,-99.99,,,-99.99,,2013-12-25 08:42:00,
2013-12-25 02:21:00,27.0,12.0,30.26,West,280,10.0,-999.0,54,-99.99,,,-99.99,,2013-12-25 09:21:00,
2013-12-25 02:42:00,28.0,12.0,30.25,West,280,10.0,-999.0,50,-99.99,,,-99.99,,2013-12-25 09:42:00,
2013-12-25 02:52:00,28.0,12.0,30.26,West,280,7.0,-999.0,50,-99.99,,,-99.99,,2013-12-25 09:52:00,
2013-12-25 03:02:00,28.0,12.0,30.26,West,280,7.0,-999.0,50,-99.99,,,-99.99,,2013-12-25 10:02:00,
2013-12-25 03:22:00,27.0,10.0,30.26,SW,220,5.0,-999.0,49,-99.99,,,-99.99,,2013-12-25 10:22:00,
2013-12-25 03:43:00,27.0,12.0,30.27,North,0,0.0,-999.0,54,-99.99,,,-99.99,,2013-12-25 10:43:00,
2013-12-25 04:22:00,21.0,10.0,30.27,North,0,0.0,-999.0,62,-99.99,,,-99.99,,2013-12-25 11:22:00,
2013-12-25 04:42:00,21.0,10.0,30.27,North,0,0.0,-999.0,62,-99.99,,,-99.99,,2013-12-25 11:42:00,
2013-12-25 05:22:00,19.0,9.0,30.27,SW,230,6.0,-999.0,62,-99.99,,,-99.99,,2013-12-25 12:22:00,
2013-12-25 05:42:00,19.0,9.0,30.27,North,0,0.0,-999.0,62,-99.99,,,-99.99,,2013-12-25 12:42:00,
2013-12-25 06:21:00,19.0,9.0,30.26,North,0,0.0,-999.0,62,-99.99,,,-99.99,,2013-12-25 13:21:00,
2013-12-25 06:42:00,18.0,9.0,30.25,SSW,200,7.0,-999.0,67,-99.99,,,-99.99,,2013-12-25 13:42:00,
2013-12-25 07:22:00,19.0,9.0,30.25,WSW,240,5.0,-999.0,62,-99.99,,,-99.99,,2013-12-25 14:22:00,
2013-12-25 07:42:00,18.0,9.0,30.25,SW,220,8.0,-999.0,67,-99.99,,,-99.99,,2013-12-25 14:42:00,
2013-12-25 08:22:00,18.0,9.0,30.24,North,0,0.0,-999.0,67,-99.99,,,-99.99,,2013-12-25 15:22:00,
2013-12-25 08:43:00,18.0,9.0,30.24,SW,220,9.0,-999.0,67,-99.99,,,-99.99,,2013-12-25 15:43:00,
2013-12-25 09:23:00,19.0,9.0,30.24,South,170,5.0,-999.0,62,-99.99,,,-99.99,,2013-12-25 16:23:00,
2013-12-25 09:42:00,19.0,10.0,30.24,South,190,8.0,-999.0,67,-99.99,,,-99.99,,2013-12-25 16:42:00,
2013-12-25 10:22:00,21.0,10.0,30.25,South,180,10.0,-999.0,62,-99.99,,,-99.99,,2013-12-25 17:22:00,
2013-12-25 10:42:00,23.0,12.0,30.24,South,180,9.0,-999.0,62,-99.99,,,-99.99,,2013-12-25 17:42:00,
2013-12-25 11:22:00,27.0,14.0,30.23,SW,220,8.0,-999.0,58,-99.99,,,-99.99,,2013-12-25 18:22:00,
2013-12-25 11:42:00,27.0,14.0,30.22,SW,220,7.0,-999.0,58,-99.99,,,-99.99,,2013-12-25 18:42:00,
2013-12-25 12:22:00,30.0,18.0,30.20,SW,220,8.0,-999.0,59,-99.99,,,-99.99,,2013-12-25 19:22:00,
2013-12-25 12:42:00,34.0,18.0,30.18,SW,230,13.0,-999.0,51,-99.99,,,-99.99,,2013-12-25 19:42:00,
2013-12-25 13:21:00,36.0,18.0,30.15,SSW,210,15.0,20.0,47,-99.99,,,-99.99,,2013-12-25 20:21:00,
2013-12-25 13:42:00,36.0,18.0,30.14,SSW,200,13.0,20.0,47,-99.99,,,-99.99,,2013-12-25 20:42:00,
2013-12-25 14:22:00,36.0,18.0,30.13,SSW,200,16.0,23.0,47,-99.99,,,-99.99,,2013-12-25 21:22:00,
2013-12-25 14:43:00,36.0,18.0,30.12,SSW,210,9.0,-999.0,47,-99.99,,,-99.99,,2013-12-25 21:43:00,
2013-12-25 15:23:00,36.0,16.0,30.10,SSW,200,17.0,24.0,43,-99.99,,,-99.99,,2013-12-25 22:23:00,
2013-12-25 15:42:00,36.0,18.0,30.09,SSW,200,20.0,31.0,47,-99.99,,,-99.99,,2013-12-25 22:42:00,
2013-12-25 16:22:00,34.0,16.0,30.09,SSW,210,22.0,30.0,47,-99.99,,,-99.99,,2013-12-25 23:22:00,
2013-12-25 16:42:00,34.0,16.0,30.08,SSW,210,24.0,32.0,47,-99.99,,,-99.99,,2013-12-25 23:42:00,
2013-12-25 17:21:00,34.0,16.0,30.07,SSW,210,21.0,31.0,47,-99.99,,,-99.99,,2013-12-26 00:21:00,
2013-12-25 17:42:00,32.0,14.0,30.07,SSW,200,22.0,33.0,46,-99.99,,,-99.99,,2013-12-26 00:42:00,
2013-12-25 18:21:00,30.0,14.0,30.08,SSW,210,16.0,23.0,50,-99.99,,,-99.99,,2013-12-26 01:21:00,
2013-12-25 18:42:00,30.0,16.0,30.07,SSW,210,16.0,23.0,54,-99.99,,,-99.99,,2013-12-26 01:42:00,
2013-12-25 18:52:00,30.0,16.0,30.06,SSW,210,17.0,24.0,54,-99.99,,,-99.99,,2013-12-26 01:52:00,
2013-12-25 19:02:00,30.0,16.0,30.06,SSW,210,17.0,24.0,54,-99.99,,,-99.99,,2013-12-26 02:02:00,
2013-12-25 19:21:00,30.0,16.0,30.06,SSW,210,17.0,28.0,54,-99.99,,,-99.99,,2013-12-26 02:21:00,
2013-12-25 20:22:00,30.0,14.0,30.06,SW,220,20.0,27.0,50,-99.99,,,-99.99,,2013-12-26 03:22:00,
2013-12-25 20:43:00,32.0,16.0,30.06,SW,220,16.0,25.0,50,-99.99,,,-99.99,,2013-12-26 03:43:00,
2013-12-25 21:23:00,32.0,16.0,30.04,SSW,200,18.0,25.0,50,-99.99,,,-99.99,,2013-12-26 04:23:00,
2013-12-25 21:43:00,34.0,16.0,30.05,SSW,200,17.0,27.0,47,-99.99,,,-99.99,,2013-12-26 04:43:00,
2013-12-25 22:22:00,34.0,16.0,30.04,SSW,210,21.0,28.0,47,-99.99,,,-99.99,,2013-12-26 05:22:00,
2013-12-25 22:42:00,32.0,18.0,30.05,SSW,210,15.0,22.0,54,-99.99,,,-99.99,,2013-12-26 05:42:00,
2013-12-25 23:22:00,32.0,16.0,30.06,SW,220,12.0,-999.0,50,-99.99,,,-99.99,,2013-12-26 06:22:00,
2013-12-25 23:42:00,30.0,18.0,30.07,SW,230,9.0,-999.0,59,-99.99,,,-99.99,,2013-12-26 06:42:00,